This is the latest recevied weather packets stored in our database for station/object N4DWK. If no packets are shown the sender has not sent any weather packets the latest 10 day(s).
| Time | Temp. | Humidity | Pressure | Rain* | Wind** | Luminosity | Snow |
|---|---|---|---|---|---|---|---|
| 1788550806 | 36.67° C | 55% | 1011.7 hPa | 0 mm | - | 70 W/m² | - |
| 1788550506 | 37.22° C | 54% | 1011.7 hPa | 0 mm | - | 72 W/m² | - |
| 1788550206 | 37.78° C | 54% | 1011.7 hPa | 0 mm | - | 62 W/m² | - |
| 1788549907 | 37.78° C | 54% | 1011.8 hPa | 0 mm | - | 478 W/m² | - |
| 1788549607 | 37.22° C | 56% | 1011.9 hPa | 0 mm | - | 497 W/m² | - |
| 1788549306 | 36.67° C | 55% | 1011.9 hPa | 0 mm | - | 496 W/m² | - |
| 1788549006 | 36.67° C | 56% | 1012 hPa | 0 mm | - | 452 W/m² | - |
| 1788548706 | 37.22° C | 54% | 1012 hPa | 0 mm | - | 522 W/m² | - |
| 1788548406 | 37.78° C | 56% | 1012.1 hPa | 0 mm | - | 508 W/m² | - |
| 1788548106 | 37.78° C | 56% | 1012.3 hPa | 0 mm | - | 520 W/m² | - |
| 1788547807 | 37.78° C | 54% | 1012.4 hPa | 0 mm | - | 441 W/m² | - |
| 1788547506 | 37.78° C | 55% | 1012.6 hPa | 0 mm | - | 540 W/m² | - |
| 1788547206 | 37.78° C | 55% | 1012.7 hPa | 0 mm | - | 538 W/m² | - |
| 1788546906 | 37.78° C | 54% | 1012.7 hPa | 0 mm | - | 515 W/m² | - |
| 1788546606 | 37.78° C | 55% | 1012.8 hPa | 0 mm | - | 545 W/m² | - |
| 1788546306 | 37.22° C | 56% | 1012.8 hPa | 0 mm | - | 554 W/m² | - |
| 1788546007 | 37.22° C | 55% | 1012.9 hPa | 0 mm | - | 559 W/m² | - |
| 1788545706 | 37.22° C | 54% | 1013 hPa | 0 mm | - | 550 W/m² | - |
| 1788545406 | 36.67° C | 57% | 1013 hPa | 0 mm | - | 557 W/m² | - |
| 1788545106 | 36.67° C | 58% | 1013.1 hPa | 0 mm | - | 552 W/m² | - |
| 1788544806 | 36.11° C | 56% | 1013.1 hPa | 0 mm | - | 559 W/m² | - |
| 1788544506 | 36.67° C | 57% | 1013.2 hPa | 0 mm | - | 561 W/m² | - |
| 1788544208 | 36.11° C | 57% | 1013.3 hPa | 0 mm | - | 568 W/m² | - |
| 1788543906 | 35.56° C | 58% | 1013.4 hPa | 0 mm | - | 587 W/m² | - |
| 1788543606 | 36.11° C | 60% | 1013.5 hPa | 0 mm | - | 612 W/m² | - |
* Rain latest hour (hover to see other rain measurements)
** Current wind speed in m/s (hover to see current wind gust speed)